TimePDT,TemperatureF,Dew PointF,Humidity,Sea Level PressureIn,VisibilityMPH,Wind Direction,Wind SpeedMPH,Gust SpeedMPH,PrecipitationIn,Events,Conditions,WindDirDegrees,DateUTC
12:58 AM,50.2,45.9,85,30.19,10.0,NW,1.2,-,N/A,,Clear,310,2013-04-26 07:58:00
1:58 AM,48.2,45.5,90,30.20,10.0,West,3.5,-,N/A,,Clear,280,2013-04-26 08:58:00
2:58 AM,46.6,45.0,94,30.21,10.0,Calm,Calm,-,N/A,,Clear,0,2013-04-26 09:58:00
3:58 AM,42.6,42.3,99,30.23,8.0,Calm,Calm,-,N/A,,Clear,0,2013-04-26 10:58:00
4:18 AM,42.8,42.8,100,30.22,1.8,West,1.2,-,N/A,,Clear,270,2013-04-26 11:18:00
4:23 AM,42.8,42.8,100,30.22,1.0,Calm,Calm,-,N/A,,Clear,0,2013-04-26 11:23:00
4:28 AM,42.8,42.8,100,30.22,0.8,Calm,Calm,-,N/A,,Clear,0,2013-04-26 11:28:00
4:33 AM,42.8,42.8,100,30.22,0.8,SSW,1.2,-,N/A,,Clear,200,2013-04-26 11:33:00
4:38 AM,42.8,42.8,100,30.22,0.5,South,2.3,-,N/A,Fog,Fog,170,2013-04-26 11:38:00
4:43 AM,42.8,42.8,100,30.22,0.5,South,2.3,-,N/A,Fog,Fog,180,2013-04-26 11:43:00
4:48 AM,44.6,42.8,93,30.22,0.5,SW,1.2,-,N/A,Fog,Fog,220,2013-04-26 11:48:00
4:49 AM,44.6,44.6,100,30.22,0.5,SW,1.2,-,N/A,Fog,Fog,220,2013-04-26 11:49:00
4:54 AM,44.6,44.6,100,30.22,3.0,SSW,2.3,-,N/A,,Mostly Cloudy,200,2013-04-26 11:54:00
4:58 AM,45.7,45.3,99,30.23,5.0,Variable,2.3,-,N/A,,Mostly Cloudy,0,2013-04-26 11:58:00
5:03 AM,46.4,44.6,93,30.22,6.0,South,1.2,-,N/A,,Mostly Cloudy,180,2013-04-26 12:03:00
5:48 AM,42.8,42.8,100,30.22,10.0,South,3.5,-,N/A,,Mostly Cloudy,180,2013-04-26 12:48:00
5:53 AM,42.8,41.0,93,30.22,9.0,South,2.3,-,N/A,,Scattered Clouds,180,2013-04-26 12:53:00
5:58 AM,42.1,41.7,99,30.23,10.0,South,2.3,-,N/A,,Scattered Clouds,180,2013-04-26 12:58:00
6:23 AM,44.6,44.6,100,30.23,10.0,WSW,5.8,-,N/A,,Mostly Cloudy,250,2013-04-26 13:23:00
6:58 AM,45.0,44.6,99,30.25,6.0,South,4.6,-,N/A,,Overcast,170,2013-04-26 13:58:00
7:58 AM,45.7,45.5,99,30.27,7.0,SSW,5.8,-,N/A,,Overcast,210,2013-04-26 14:58:00
8:58 AM,46.9,45.5,95,30.27,10.0,South,3.5,-,N/A,,Overcast,170,2013-04-26 15:58:00
9:23 AM,46.4,44.6,93,30.26,10.0,South,3.5,-,N/A,,Overcast,180,2013-04-26 16:23:00
9:38 AM,46.4,44.6,93,30.26,10.0,SW,5.8,-,N/A,,Overcast,220,2013-04-26 16:38:00
9:58 AM,48.6,45.5,89,30.27,10.0,SW,2.3,-,N/A,,Overcast,220,2013-04-26 16:58:00
10:03 AM,48.2,44.6,87,30.26,10.0,Variable,2.3,-,N/A,,Overcast,0,2013-04-26 17:03:00
10:13 AM,50.0,46.4,87,30.25,10.0,Variable,2.3,-,N/A,,Overcast,0,2013-04-26 17:13:00
10:28 AM,50.0,46.4,87,30.25,10.0,Variable,1.2,-,N/A,,Scattered Clouds,0,2013-04-26 17:28:00
10:58 AM,53.4,46.9,79,30.27,10.0,Variable,2.3,-,N/A,,Clear,0,2013-04-26 17:58:00
11:58 AM,58.3,46.9,66,30.27,10.0,Variable,4.6,-,N/A,,Partly Cloudy,0,2013-04-26 18:58:00
12:58 PM,60.6,47.8,63,30.27,10.0,Variable,1.2,-,N/A,,Clear,0,2013-04-26 19:58:00
1:58 PM,64.9,47.3,53,30.27,10.0,Variable,6.9,-,N/A,,Clear,0,2013-04-26 20:58:00
2:58 PM,66.6,48.9,53,30.25,10.0,Variable,1.2,-,N/A,,Clear,0,2013-04-26 21:58:00
3:58 PM,68.4,49.1,50,30.25,10.0,NNW,8.1,-,N/A,,Clear,330,2013-04-26 22:58:00
4:58 PM,69.4,48.2,47,30.22,10.0,NW,3.5,-,N/A,,Clear,320,2013-04-26 23:58:00
5:58 PM,70.5,46.2,42,30.22,10.0,Variable,3.5,-,N/A,,Clear,0,2013-04-27 00:58:00
6:58 PM,69.1,37.4,31,30.22,10.0,WNW,6.9,-,N/A,,Clear,300,2013-04-27 01:58:00
7:58 PM,65.8,29.3,25,30.22,10.0,West,5.8,-,N/A,,Scattered Clouds,260,2013-04-27 02:58:00
8:58 PM,59.9,31.3,34,30.22,10.0,SSW,4.6,-,N/A,,Scattered Clouds,210,2013-04-27 03:58:00
9:58 PM,60.4,28.0,29,30.24,10.0,WSW,3.5,-,N/A,,Overcast,240,2013-04-27 04:58:00
10:58 PM,51.8,33.1,49,30.25,10.0,South,2.3,-,N/A,,Mostly Cloudy,190,2013-04-27 05:58:00
11:58 PM,50.0,37.8,63,30.24,10.0,South,3.5,-,N/A,,Mostly Cloudy,170,2013-04-27 06:58:00